Location: Larkspur
(54.4391°N, 113.7691°W)
Time: 19:13:04
(UTC+00:00)

LilacSat-2 - Pass Details

Date: 07 December 2023
Orbit: 485 x 504 km, 97.5° (Epoch: 21 February)

Event Time Altitude Azimuth Distance (km) Brightness Sun altitude
Rises 01:33:44 0° 194° (SSW) 2,574 ? -19.2°
Reaches altitude 10° 01:36:03 10° 207° (SSW) 1,701 ? -19.6°
Maximum altitude 01:39:10 26° 266° (W) 1,020 ? -20.0°
Drops below altitude 10° 01:42:20 10° 324° (NW) 1,728 ? -20.5°
Sets 01:44:42 0° 338° (NNW) 2,624 ? -20.8°
